Hourly Weather Rublevka

Today, 26 July, Monday

Time Temperature Precipitation Wind Pressure Humidity
00:00 +16°C° 0 mm 0 mps 749 mmHg 60%
01:00 +16°C° 0 mm 0 mps 749 mmHg 61%
02:00 +15°C° 0 mm 0 mps 749 mmHg 62%
03:00 +15°C° 0 mm 0 mps 749 mmHg 63%
04:00 +15°C° 0 mm 0 mps 749 mmHg 63%
05:00 +18°C° 0 mm 1 mps 749 mmHg 63%
06:00 +18°C° 0 mm 1 mps 749 mmHg 64%
07:00 +20°C° 0 mm 1 mps 749 mmHg 61%
08:00 +21°C° 0 mm 1 mps 750 mmHg 58%
09:00 +22°C° 0 mm 1 mps 750 mmHg 55%
10:00 +23°C° 0 mm 1 mps 750 mmHg 51%
11:00 +24°C° 0 mm 2 mps 750 mmHg 48%
12:00 +25°C° 0 mm 2 mps 750 mmHg 44%
13:00 +26°C° 0 mm 2 mps 750 mmHg 44%
14:00 +26°C° 0 mm 2 mps 749 mmHg 44%
15:00 +26°C° 0 mm 2 mps 749 mmHg 44%
16:00 +26°C° 0 mm 2 mps 749 mmHg 46%
17:00 +26°C° 0 mm 2 mps 749 mmHg 48%
18:00 +26°C° 0 mm 2 mps 749 mmHg 50%
19:00 +24°C° 0 mm 1 mps 749 mmHg 56%
20:00 +23°C° 0 mm 1 mps 749 mmHg 61%
21:00 +21°C° 0 mm 1 mps 749 mmHg 67%
22:00 +21°C° 0 mm 1 mps 749 mmHg 69%
23:00 +20°C° 0 mm 1 mps 749 mmHg 71%

Tomorrow, 27 July, Tuesday

Time Temperature Precipitation Wind Pressure Humidity
00:00 +19°C° 0 mm 1 mps 749 mmHg 73%
01:00 +18°C° 0 mm 2 mps 749 mmHg 76%
02:00 +17°C° 0 mm 2 mps 749 mmHg 78%
03:00 +17°C° 0 mm 2 mps 749 mmHg 80%
04:00 +17°C° 0 mm 2 mps 749 mmHg 80%
05:00 +18°C° 0 mm 2 mps 749 mmHg 80%
06:00 +19°C° 0 mm 1 mps 749 mmHg 80%
07:00 +20°C° 0 mm 2 mps 749 mmHg 74%
08:00 +23°C° 0 mm 2 mps 749 mmHg 68%
09:00 +24°C° 0 mm 2 mps 749 mmHg 62%
10:00 +26°C° 0 mm 2 mps 749 mmHg 56%
11:00 +27°C° 0 mm 2 mps 749 mmHg 51%
12:00 +29°C° 0 mm 2 mps 749 mmHg 45%
13:00 +29°C° 0 mm 2 mps 748 mmHg 45%
14:00 +29°C° 0 mm 2 mps 748 mmHg 44%
15:00 +29°C° 0 mm 2 mps 748 mmHg 44%
16:00 +28°C° 0.1 mm 2 mps 748 mmHg 48%
17:00 +27°C° 0.1 mm 2 mps 747 mmHg 53%
18:00 +26°C° 0.1 mm 2 mps 747 mmHg 58%
19:00 +24°C° 0.7 mm 2 mps 747 mmHg 68%
20:00 +21°C° 0.7 mm 2 mps 747 mmHg 78%
21:00 +19°C° 0.7 mm 2 mps 747 mmHg 89%
22:00 +19°C° 0.3 mm 2 mps 747 mmHg 86%
23:00 +19°C° 0.3 mm 2 mps 747 mmHg 84%

Day after tomorrow, 28 July, Wednesday

Time Temperature Precipitation Wind Pressure Humidity
00:00 +19°C° 0.3 mm 2 mps 747 mmHg 82%
01:00 +18°C° 0 mm 2 mps 747 mmHg 83%
02:00 +18°C° 0 mm 2 mps 746 mmHg 84%
03:00 +17°C° 0 mm 2 mps 746 mmHg 85%
04:00 +18°C° 0 mm 2 mps 746 mmHg 85%
05:00 +18°C° 0 mm 2 mps 746 mmHg 84%
06:00 +18°C° 0 mm 2 mps 746 mmHg 83%
07:00 +20°C° 0 mm 3 mps 746 mmHg 75%
08:00 +22°C° 0 mm 3 mps 745 mmHg 67%
09:00 +26°C° 0 mm 3 mps 745 mmHg 59%
10:00 +27°C° 0 mm 4 mps 745 mmHg 52%
11:00 +29°C° 0 mm 4 mps 745 mmHg 45%
12:00 +30°C° 0 mm 5 mps 744 mmHg 38%
13:00 +30°C° 0 mm 5 mps 744 mmHg 40%
14:00 +29°C° 0 mm 5 mps 743 mmHg 43%
15:00 +29°C° 0 mm 5 mps 743 mmHg 45%
16:00 +26°C° 0.1 mm 5 mps 743 mmHg 56%
17:00 +23°C° 0.1 mm 5 mps 743 mmHg 67%
18:00 +21°C° 0.1 mm 5 mps 743 mmHg 78%
19:00 +20°C° 0.1 mm 4 mps 742 mmHg 81%
20:00 +20°C° 0.1 mm 3 mps 742 mmHg 83%
21:00 +20°C° 0.1 mm 2 mps 741 mmHg 85%
22:00 +19°C° 0 mm 3 mps 741 mmHg 87%
23:00 +19°C° 0 mm 4 mps 741 mmHg 89%

29 July, Thursday

Time Temperature Precipitation Wind Pressure Humidity
00:00 +19°C° 0 mm 4 mps 740 mmHg 92%
01:00 +18°C° 0 mm 4 mps 740 mmHg 94%
02:00 +18°C° 0 mm 3 mps 740 mmHg 95%
03:00 +18°C° 0 mm 3 mps 740 mmHg 97%
04:00 +18°C° 0 mm 3 mps 740 mmHg 96%
05:00 +18°C° 0 mm 3 mps 740 mmHg 95%
06:00 +18°C° 0 mm 3 mps 740 mmHg 94%
07:00 +20°C° 0 mm 3 mps 740 mmHg 85%
08:00 +22°C° 0 mm 4 mps 739 mmHg 76%
09:00 +25°C° 0 mm 4 mps 739 mmHg 68%
10:00 +26°C° 0 mm 5 mps 739 mmHg 61%
11:00 +28°C° 0 mm 5 mps 740 mmHg 53%
12:00 +29°C° 0 mm 5 mps 740 mmHg 46%
13:00 +29°C° 0 mm 5 mps 740 mmHg 46%
14:00 +29°C° 0 mm 4 mps 739 mmHg 47%
15:00 +29°C° 0 mm 4 mps 739 mmHg 47%
16:00 +29°C° 0 mm 4 mps 739 mmHg 47%
17:00 +29°C° 0 mm 4 mps 739 mmHg 48%
18:00 +29°C° 0 mm 4 mps 739 mmHg 48%
19:00 +27°C° 0 mm 3 mps 739 mmHg 54%
20:00 +26°C° 0 mm 2 mps 739 mmHg 59%
21:00 +24°C° 0 mm 2 mps 739 mmHg 64%
22:00 +23°C° 0 mm 2 mps 739 mmHg 66%
23:00 +23°C° 0 mm 2 mps 739 mmHg 69%

30 July, Friday

Time Temperature Precipitation Wind Pressure Humidity
00:00 +21°C° 0 mm 3 mps 739 mmHg 71%
01:00 +21°C° 0.2 mm 3 mps 738 mmHg 76%
02:00 +20°C° 0.2 mm 3 mps 738 mmHg 81%
03:00 +20°C° 0.2 mm 3 mps 738 mmHg 85%
04:00 +20°C° 0.8 mm 2 mps 738 mmHg 88%
05:00 +20°C° 0.8 mm 2 mps 738 mmHg 91%
06:00 +20°C° 0.8 mm 2 mps 738 mmHg 93%
07:00 +21°C° 0 mm 2 mps 738 mmHg 89%
08:00 +22°C° 0 mm 3 mps 738 mmHg 84%
09:00 +24°C° 0 mm 3 mps 739 mmHg 79%
10:00 +25°C° 0 mm 4 mps 739 mmHg 74%
11:00 +26°C° 0 mm 4 mps 739 mmHg 69%
12:00 +26°C° 0 mm 4 mps 739 mmHg 64%
13:00 +27°C° 0.1 mm 4 mps 739 mmHg 58%
14:00 +28°C° 0.1 mm 4 mps 739 mmHg 53%
15:00 +29°C° 0.1 mm 4 mps 739 mmHg 48%
16:00 +29°C° 0 mm 4 mps 739 mmHg 47%
17:00 +28°C° 0 mm 4 mps 739 mmHg 46%
18:00 +28°C° 0 mm 4 mps 739 mmHg 46%
19:00 +26°C° 0 mm 4 mps 739 mmHg 51%
20:00 +24°C° 0 mm 3 mps 739 mmHg 57%
21:00 +21°C° 0 mm 3 mps 739 mmHg 63%
22:00 +20°C° 0 mm 2 mps 739 mmHg 64%
23:00 +19°C° 0 mm 2 mps 739 mmHg 65%

31 July, Saturday

Time Temperature Precipitation Wind Pressure Humidity
00:00 +20°C° 0 mm 1 mps 739 mmHg 66%
01:00 +18°C° 0 mm 2 mps 740 mmHg 67%
02:00 +18°C° 0 mm 2 mps 740 mmHg 68%
03:00 +18°C° 0 mm 2 mps 740 mmHg 68%
04:00 +18°C° 0 mm 2 mps 740 mmHg 69%
05:00 +18°C° 0 mm 2 mps 740 mmHg 69%
06:00 +18°C° 0 mm 2 mps 739 mmHg 70%
07:00 +20°C° 0 mm 2 mps 740 mmHg 64%
08:00 +22°C° 0 mm 3 mps 740 mmHg 58%
09:00 +26°C° 0 mm 3 mps 740 mmHg 51%
10:00 +27°C° 0 mm 3 mps 739 mmHg 47%
11:00 +28°C° 0 mm 4 mps 739 mmHg 43%
12:00 +29°C° 0 mm 4 mps 739 mmHg 39%
13:00 +30°C° 0 mm 4 mps 739 mmHg 38%
14:00 +30°C° 0 mm 4 mps 739 mmHg 37%
15:00 +30°C° 0 mm 4 mps 738 mmHg 36%
16:00 +30°C° 0 mm 4 mps 738 mmHg 38%
17:00 +30°C° 0 mm 4 mps 738 mmHg 40%
18:00 +29°C° 0 mm 3 mps 738 mmHg 42%
19:00 +27°C° 0 mm 3 mps 738 mmHg 53%
20:00 +25°C° 0 mm 3 mps 738 mmHg 64%
21:00 +21°C° 0 mm 3 mps 738 mmHg 74%
22:00 +21°C° 0.1 mm 2 mps 738 mmHg 80%
23:00 +20°C° 0.1 mm 2 mps 738 mmHg 86%
Show more

We Need Your Consent

Meteoprog and our Service Providers may store and access personal data such as cookies, device identifiers or other similar technologies on your device and process such data to personalise content and ads, as well as provide social media features and to analyse the traffic.

  • Store and/or access information on your device

    Cookies, device identifiers or other information can be stored or accessed on your device for the purposes indicated above.

  • Personalised ads and content, ad and content measurement, audience insights, and products development

    Ads and content can be personalised based on a profile. More data can be added to better personalise ads and content. Ad and content performance can be measured. Insights about the audience who saw the ads and content can be derived. Such data can be used to develop or improve user’s experience, systems and software.

By clicking ‘I Agree’ you will allow the use of indicated cookies, device identifiers, web beacons or other similar technologies. Your settings can be changed in the browser on your device.

For certain purposes, legitimate interests may be relied on, rather than consent. You can read more about this in our Privacy and Cookie Policy.